Regional Weather Roundup
Issued by NWS Charleston, WV

Home | Current Version | Previous Version | Text Only | Print | Product List | Glossary On
Versions: 1 2 3 4 5 6 7 8 9 10 11 12 13 14 15 16 17 18 19 20 21 22 23 24 25 26 27 28 29 30 31 32 33 34 35 36 37 38 39 40 41 42 43 44 45 46 47 48 49 50
000
ASUS41 KRLX 261210
RWRRLX
Regional Weather Roundup
National Weather Service Charleston WV
800 AM EDT WED JUN 26 2019

Note: "fair" indicates few or no clouds below 12,000 feet with no
significant weather and/or obstructions to visibility.

WVZ003-261300-
Northern Panhandle of West Virginia

CITY           SKY/WX    TMP DP  RH WIND       PRES   REMARKS
WHEELING       FAIR      69  62  78 VRB3      30.10F
$$

WVZ009-261300-
Northwest West Virginia

CITY           SKY/WX    TMP DP  RH WIND       PRES   REMARKS
PARKERSBURG    FAIR      68  61  78 S5        30.15S
$$

WVZ006-261300-
Western West Virginia

CITY           SKY/WX    TMP DP  RH WIND       PRES   REMARKS
HUNTINGTON     FAIR      67  62  84 S6        30.15R
$$

WVZ015-261300-
West Central West Virginia

CITY           SKY/WX    TMP DP  RH WIND       PRES   REMARKS
CHARLESTON     FAIR      64  63  96 CALM      30.17R
$$

WVZ022-031-261300-
North Central West Virginia

CITY           SKY/WX    TMP DP  RH WIND       PRES   REMARKS
MORGANTOWN     FAIR      68  61  78 VRB3      30.15F
CLARKSBURG       N/A     69  61  75 MISG      30.15F
BUCKHANNON     FAIR      64  61  88 S3        30.19S
$$

WVZ025-035-042-045-261300-
Southern West Virginia

CITY           SKY/WX    TMP DP  RH WIND       PRES   REMARKS
BECKLEY        FAIR      65  58  78 SW5       30.25R
LOGAN          FAIR      64  63  94 CALM      30.20S
PINEVILLE      CLOUDY    60  59  97 MISG      30.28R FOG
BLUEFIELD      FAIR      63  57  81 W7        30.27R
LEWISBURG      FAIR      59  59  99 CALM      30.24R
$$

WVZ047-261300-
Northern Mountains of West Virginia

CITY           SKY/WX    TMP DP  RH WIND       PRES   REMARKS
ELKINS         FAIR      63  57  81 CALM      30.22R
$$

WVZ052-261300-
Eastern Panhandle of West Virginia

CITY           SKY/WX    TMP DP  RH WIND       PRES   REMARKS
MARTINSBURG    FAIR      72  62  71 S5        30.10R
PETERSBURG     PTSUNNY   65  61  88 CALM      30.15R
$$

Southeast Ohio/Northeast Kentucky

CITY           SKY/WX    TMP DP  RH WIND       PRES   REMARKS
ATHENS         FAIR      66  66  99 SW3       30.12S
ASHLAND        FAIR      65  64  97 CALM      30.15R
$$




USA.gov is the U.S. government's official web portal to all federal, state and local government web resources and services.